Time,TemperatureF,DewpointF,PressureIn,WindDirection,WindDirectionDegrees,WindSpeedMPH,WindSpeedGustMPH,Humidity,HourlyPrecipIn,Conditions,Clouds,dailyrainin,SoftwareType,DateUTC
2013-09-19 00:03:00,80.8,77.3,29.88,East,82,3.5,3.5,89,0.00,RA,,0.00,WeatherDisplay:10.37,2013-09-19 05:03:00,
2013-09-19 00:08:00,80.8,77.3,29.88,ESE,113,4.6,4.6,89,0.00,RA,,0.00,WeatherDisplay:10.37,2013-09-19 05:08:00,
2013-09-19 00:13:00,80.8,77.3,29.88,East,96,5.8,5.8,89,0.00,CLR,,0.00,WeatherDisplay:10.37,2013-09-19 05:13:00,
2013-09-19 00:18:00,80.8,77.3,29.88,ESE,107,4.6,4.6,89,0.00,CLR,,0.00,WeatherDisplay:10.37,2013-09-19 05:18:00,
2013-09-19 00:23:00,80.9,77.4,29.87,ESE,108,5.8,5.8,89,0.00,CLR,,0.00,WeatherDisplay:10.37,2013-09-19 05:23:00,
2013-09-19 00:28:00,80.9,77.4,29.87,East,99,5.8,5.8,89,0.00,CLR,,0.00,WeatherDisplay:10.37,2013-09-19 05:28:00,
2013-09-19 00:33:00,80.9,77.4,29.87,SE,125,5.8,5.8,89,0.00,CLR,,0.00,WeatherDisplay:10.37,2013-09-19 05:33:00,
2013-09-19 00:38:00,80.9,77.4,29.87,ESE,122,4.6,4.6,89,0.00,CLR,,0.00,WeatherDisplay:10.37,2013-09-19 05:38:00,
2013-09-19 00:43:00,80.9,77.4,29.87,SE,124,2.3,2.3,89,0.00,CLR,,0.00,WeatherDisplay:10.37,2013-09-19 05:43:00,
2013-09-19 00:48:00,80.8,77.3,29.87,ESE,102,3.5,3.5,89,0.00,CLR,,0.00,WeatherDisplay:10.37,2013-09-19 05:48:00,
2013-09-19 00:53:00,80.7,77.2,29.87,ESE,116,1.1,1.1,89,0.00,CLR,,0.00,WeatherDisplay:10.37,2013-09-19 05:53:00,
2013-09-19 00:58:00,80.5,77.3,29.87,ESE,108,2.3,2.3,90,0.00,CLR,,0.00,WeatherDisplay:10.37,2013-09-19 05:58:00,
2013-09-19 01:03:00,80.4,77.2,29.87,East,96,3.5,3.5,90,0.00,CLR,,0.00,WeatherDisplay:10.37,2013-09-19 06:03:00,
2013-09-19 01:08:00,80.3,77.1,29.88,ESE,102,4.6,4.6,90,0.00,CLR,,0.00,WeatherDisplay:10.37,2013-09-19 06:08:00,
2013-09-19 01:13:00,80.3,77.1,29.87,SE,140,2.3,2.3,90,0.00,CLR,,0.00,WeatherDisplay:10.37,2013-09-19 06:13:00,
2013-09-19 01:18:00,80.3,77.1,29.87,SE,130,2.3,2.3,90,0.00,CLR,,0.00,WeatherDisplay:10.37,2013-09-19 06:18:00,
2013-09-19 01:23:00,80.2,77.0,29.87,ESE,115,1.1,1.7,90,0.00,CLR,,0.00,WeatherDisplay:10.37,2013-09-19 06:23:00,
2013-09-19 01:28:00,80.2,77.0,29.87,East,100,1.1,1.1,90,0.00,CLR,,0.00,WeatherDisplay:10.37,2013-09-19 06:28:00,
2013-09-19 01:33:00,80.2,77.3,29.87,East,98,2.3,2.3,91,0.00,CLR,,0.00,WeatherDisplay:10.37,2013-09-19 06:33:00,
2013-09-19 01:38:00,80.1,76.9,29.86,SE,134,4.6,4.6,90,0.00,CLR,,0.00,WeatherDisplay:10.37,2013-09-19 06:38:00,
2013-09-19 01:43:00,80.0,76.8,29.86,ESE,107,5.8,5.8,90,0.00,CLR,,0.00,WeatherDisplay:10.37,2013-09-19 06:43:00,
2013-09-19 01:48:00,80.0,76.8,29.86,East,89,4.6,4.6,90,0.00,CLR,,0.00,WeatherDisplay:10.37,2013-09-19 06:48:00,
2013-09-19 01:53:00,80.2,76.7,29.86,SE,137,6.9,6.9,89,0.00,CLR,,0.00,WeatherDisplay:10.37,2013-09-19 06:53:00,
2013-09-19 01:58:00,80.2,76.3,29.86,SE,135,4.6,4.6,88,0.00,CLR,,0.00,WeatherDisplay:10.37,2013-09-19 06:58:00,
2013-09-19 02:03:00,80.3,76.4,29.86,East,93,5.3,5.3,88,0.00,CLR,,0.00,WeatherDisplay:10.37,2013-09-19 07:03:00,
2013-09-19 02:08:00,80.3,76.4,29.86,ESE,106,3.5,3.5,88,0.00,CLR,,0.00,WeatherDisplay:10.37,2013-09-19 07:08:00,
2013-09-19 02:13:00,80.3,76.4,29.86,ESE,111,5.8,5.8,88,0.00,CLR,,0.00,WeatherDisplay:10.37,2013-09-19 07:13:00,
2013-09-19 02:18:00,80.3,76.4,29.86,East,101,5.8,5.8,88,0.00,CLR,,0.00,WeatherDisplay:10.37,2013-09-19 07:18:00,
2013-09-19 02:24:00,80.2,76.3,29.86,ESE,113,5.8,5.8,88,0.00,CLR,,0.00,WeatherDisplay:10.37,2013-09-19 07:24:00,
2013-09-19 02:29:00,80.2,76.3,29.86,East,96,2.3,2.3,88,0.00,CLR,,0.00,WeatherDisplay:10.37,2013-09-19 07:29:00,
2013-09-19 02:34:00,80.2,76.3,29.86,East,99,5.8,5.8,88,0.00,CLR,,0.00,WeatherDisplay:10.37,2013-09-19 07:34:00,
2013-09-19 02:39:00,80.1,76.2,29.85,ESE,108,4.6,4.6,88,0.00,CLR,,0.00,WeatherDisplay:10.37,2013-09-19 07:39:00,
2013-09-19 02:44:00,80.1,76.6,29.85,ESE,103,3.5,3.5,89,0.00,CLR,,0.00,WeatherDisplay:10.37,2013-09-19 07:44:00,
2013-09-19 02:49:00,80.1,76.6,29.85,ESE,110,2.3,2.3,89,0.00,CLR,,0.00,WeatherDisplay:10.37,2013-09-19 07:49:00,
2013-09-19 02:54:00,80.1,76.6,29.85,East,96,3.5,3.5,89,0.00,CLR,,0.00,WeatherDisplay:10.37,2013-09-19 07:54:00,
2013-09-19 02:59:00,80.0,76.5,29.85,East,98,2.3,2.3,89,0.00,CLR,,0.00,WeatherDisplay:10.37,2013-09-19 07:59:00,
2013-09-19 03:04:00,80.1,76.6,29.85,East,100,2.3,2.3,89,0.00,CLR,,0.00,WeatherDisplay:10.37,2013-09-19 08:04:00,
2013-09-19 03:09:00,80.0,76.5,29.85,East,91,3.5,3.5,89,0.00,CLR,,0.00,WeatherDisplay:10.37,2013-09-19 08:09:00,
2013-09-19 03:14:00,80.1,76.9,29.85,SE,125,2.3,2.3,90,0.00,CLR,,0.00,WeatherDisplay:10.37,2013-09-19 08:14:00,
2013-09-19 03:19:00,80.1,76.9,29.84,East,100,3.5,3.5,90,0.00,CLR,,0.00,WeatherDisplay:10.37,2013-09-19 08:19:00,
2013-09-19 03:24:00,80.1,76.6,29.84,East,96,5.8,5.8,89,0.00,CLR,,0.00,WeatherDisplay:10.37,2013-09-19 08:24:00,
2013-09-19 03:29:00,80.2,76.7,29.84,ESE,108,4.6,4.6,89,0.00,CLR,,0.00,WeatherDisplay:10.37,2013-09-19 08:29:00,
2013-09-19 03:34:00,80.1,76.6,29.84,ESE,111,3.5,3.5,89,0.00,CLR,,0.00,WeatherDisplay:10.37,2013-09-19 08:34:00,
2013-09-19 03:39:00,80.1,76.6,29.84,ESE,111,3.5,3.5,89,0.00,CLR,,0.00,WeatherDisplay:10.37,2013-09-19 08:39:00,
2013-09-19 03:44:00,80.0,76.5,29.83,ESE,111,1.1,1.1,89,0.00,CLR,,0.00,WeatherDisplay:10.37,2013-09-19 08:44:00,
2013-09-19 03:49:00,79.9,76.7,29.83,ESE,105,3.5,3.5,90,0.00,CLR,,0.00,WeatherDisplay:10.37,2013-09-19 08:49:00,
2013-09-19 03:54:00,79.8,76.6,29.83,SE,124,4.6,4.6,90,0.00,CLR,,0.00,WeatherDisplay:10.37,2013-09-19 08:54:00,
2013-09-19 03:59:00,79.8,76.6,29.83,East,101,3.5,3.5,90,0.00,CLR,,0.00,WeatherDisplay:10.37,2013-09-19 08:59:00,
2013-09-19 04:04:00,79.8,76.6,29.83,ESE,102,3.5,3.5,90,0.00,CLR,,0.00,WeatherDisplay:10.37,2013-09-19 09:04:00,
2013-09-19 04:09:00,79.8,76.6,29.83,ESE,102,1.1,1.1,90,0.00,CLR,,0.00,WeatherDisplay:10.37,2013-09-19 09:09:00,
2013-09-19 04:15:00,79.7,76.5,29.83,ESE,108,3.5,3.5,90,0.00,CLR,,0.00,WeatherDisplay:10.37,2013-09-19 09:15:00,
2013-09-19 04:20:00,79.7,76.5,29.83,ESE,105,1.1,1.1,90,0.00,CLR,,0.00,WeatherDisplay:10.37,2013-09-19 09:20:00,
2013-09-19 04:25:00,79.6,76.7,29.83,ESE,105,1.1,1.1,91,0.00,CLR,,0.00,WeatherDisplay:10.37,2013-09-19 09:25:00,
2013-09-19 04:30:00,79.5,76.6,29.83,ESE,105,2.3,2.3,91,0.00,CLR,,0.00,WeatherDisplay:10.37,2013-09-19 09:30:00,
2013-09-19 04:35:00,79.4,76.5,29.83,ESE,105,1.1,1.1,91,0.00,CLR,,0.00,WeatherDisplay:10.37,2013-09-19 09:35:00,
2013-09-19 04:40:00,79.3,76.4,29.83,ESE,105,1.1,1.1,91,0.00,CLR,,0.00,WeatherDisplay:10.37,2013-09-19 09:40:00,
2013-09-19 04:45:00,79.3,76.4,29.83,ESE,105,2.3,2.3,91,0.00,CLR,,0.00,WeatherDisplay:10.37,2013-09-19 09:45:00,
2013-09-19 04:50:00,79.3,76.4,29.83,ESE,105,1.1,1.1,91,0.00,CLR,,0.00,WeatherDisplay:10.37,2013-09-19 09:50:00,
2013-09-19 04:55:00,79.2,76.3,29.83,ESE,105,1.1,1.1,91,0.00,CLR,,0.00,WeatherDisplay:10.37,2013-09-19 09:55:00,
2013-09-19 05:00:00,79.2,76.7,29.83,ESE,105,2.3,2.3,92,0.00,CLR,,0.00,WeatherDisplay:10.37,2013-09-19 10:00:00,
2013-09-19 05:05:00,79.2,76.7,29.83,ESE,105,1.1,1.1,92,0.00,CLR,,0.00,WeatherDisplay:10.37,2013-09-19 10:05:00,
2013-09-19 05:10:00,79.1,76.6,29.83,ESE,105,0.0,0.1,92,0.00,CLR,,0.00,WeatherDisplay:10.37,2013-09-19 10:10:00,
2013-09-19 05:15:00,79.0,76.5,29.83,ESE,105,0.0,0.4,92,0.00,CLR,,0.00,WeatherDisplay:10.37,2013-09-19 10:15:00,
2013-09-19 05:20:00,79.0,76.5,29.83,ESE,105,1.1,0.0,92,0.00,CLR,,0.00,WeatherDisplay:10.37,2013-09-19 10:20:00,
2013-09-19 05:25:00,78.9,76.4,29.83,ESE,105,0.0,0.0,92,0.00,CLR,,0.00,WeatherDisplay:10.37,2013-09-19 10:25:00,
2013-09-19 05:30:00,78.8,76.3,29.83,ESE,105,1.1,1.1,92,0.00,CLR,,0.00,WeatherDisplay:10.37,2013-09-19 10:30:00,
2013-09-19 05:35:00,78.7,76.2,29.83,ESE,105,0.0,0.0,92,0.00,CLR,,0.00,WeatherDisplay:10.37,2013-09-19 10:35:00,
2013-09-19 05:40:00,78.6,76.1,29.83,ESE,105,0.0,0.0,92,0.00,CLR,,0.00,WeatherDisplay:10.37,2013-09-19 10:40:00,
2013-09-19 05:45:00,78.5,76.0,29.83,ESE,105,0.0,0.0,92,0.00,CLR,,0.00,WeatherDisplay:10.37,2013-09-19 10:45:00,
2013-09-19 05:50:00,78.4,75.9,29.83,ESE,105,0.0,0.0,92,0.00,CLR,,0.00,WeatherDisplay:10.37,2013-09-19 10:50:00,
2013-09-19 05:55:00,78.3,75.8,29.83,ESE,105,0.0,0.0,92,0.00,CLR,,0.00,WeatherDisplay:10.37,2013-09-19 10:55:00,
2013-09-19 06:00:00,78.2,75.7,29.83,ESE,105,0.0,0.0,92,0.00,CLR,,0.00,WeatherDisplay:10.37,2013-09-19 11:00:00,
2013-09-19 06:05:00,78.1,75.9,29.83,ESE,105,0.0,0.0,93,0.00,CLR,,0.00,WeatherDisplay:10.37,2013-09-19 11:05:00,
2013-09-19 06:10:00,78.0,75.8,29.83,ESE,105,0.0,0.0,93,0.00,CLR,,0.00,WeatherDisplay:10.37,2013-09-19 11:10:00,
2013-09-19 06:15:00,78.0,75.8,29.83,ESE,105,0.0,0.0,93,0.00,CLR,,0.00,WeatherDisplay:10.37,2013-09-19 11:15:00,
2013-09-19 06:20:00,77.9,75.7,29.83,ESE,105,0.0,0.0,93,0.00,CLR,,0.00,WeatherDisplay:10.37,2013-09-19 11:20:00,
2013-09-19 06:25:00,77.8,75.6,29.83,ESE,105,0.0,0.0,93,0.00,CLR,,0.00,WeatherDisplay:10.37,2013-09-19 11:25:00,
2013-09-19 06:30:00,77.7,75.5,29.84,ESE,105,0.0,0.0,93,0.00,CLR,,0.00,WeatherDisplay:10.37,2013-09-19 11:30:00,
2013-09-19 06:35:00,77.7,75.5,29.84,ESE,105,0.0,0.0,93,0.00,CLR,,0.00,WeatherDisplay:10.37,2013-09-19 11:35:00,
2013-09-19 06:40:00,77.6,75.4,29.84,ESE,105,0.0,0.0,93,0.00,CLR,,0.00,WeatherDisplay:10.37,2013-09-19 11:40:00,
2013-09-19 06:45:00,77.6,75.4,29.84,ESE,105,0.0,0.0,93,0.00,CLR,,0.00,WeatherDisplay:10.37,2013-09-19 11:45:00,
2013-09-19 06:50:00,77.5,75.3,29.84,ESE,105,0.0,0.0,93,0.00,CLR,,0.00,WeatherDisplay:10.37,2013-09-19 11:50:00,
2013-09-19 06:55:00,77.5,75.6,29.84,ESE,105,0.0,0.0,94,0.00,CLR,,0.00,WeatherDisplay:10.37,2013-09-19 11:55:00,
2013-09-19 07:00:00,77.5,75.6,29.84,ESE,105,0.0,0.0,94,0.00,CLR,,0.00,WeatherDisplay:10.37,2013-09-19 12:00:00,
2013-09-19 07:05:00,77.4,75.5,29.85,ESE,105,0.0,0.0,94,0.00,CLR,,0.00,WeatherDisplay:10.37,2013-09-19 12:05:00,
2013-09-19 07:10:00,77.3,75.4,29.85,ESE,105,0.0,0.0,94,0.00,CLR,,0.00,WeatherDisplay:10.37,2013-09-19 12:10:00,
2013-09-19 07:15:00,77.2,75.3,29.85,ESE,105,0.0,0.0,94,0.00,CLR,,0.00,WeatherDisplay:10.37,2013-09-19 12:15:00,
2013-09-19 07:20:00,77.2,75.3,29.85,ESE,105,0.0,0.0,94,0.00,CLR,,0.00,WeatherDisplay:10.37,2013-09-19 12:20:00,
2013-09-19 07:25:00,77.2,75.3,29.85,ESE,105,0.0,0.0,94,0.00,CLR,,0.00,WeatherDisplay:10.37,2013-09-19 12:25:00,
2013-09-19 07:30:00,77.2,75.3,29.85,ESE,105,0.0,0.0,94,0.00,CLR,,0.00,WeatherDisplay:10.37,2013-09-19 12:30:00,
2013-09-19 07:35:00,77.1,75.2,29.85,ESE,105,0.0,0.0,94,0.00,CLR,,0.00,WeatherDisplay:10.37,2013-09-19 12:35:00,
2013-09-19 07:40:00,77.2,75.3,29.85,ESE,105,1.1,0.0,94,0.00,CLR,,0.00,WeatherDisplay:10.37,2013-09-19 12:40:00,
2013-09-19 07:45:00,77.4,75.9,29.85,ESE,105,0.0,0.0,95,0.00,CLR,,0.00,WeatherDisplay:10.37,2013-09-19 12:45:00,
2013-09-19 07:50:00,77.5,76.0,29.85,ESE,105,0.0,0.0,95,0.00,CLR,,0.00,WeatherDisplay:10.37,2013-09-19 12:50:00,
2013-09-19 07:55:00,77.8,76.3,29.85,ESE,105,0.0,0.0,95,0.00,CLR,,0.00,WeatherDisplay:10.37,2013-09-19 12:55:00,
2013-09-19 08:00:00,78.1,76.6,29.85,ESE,105,0.0,0.0,95,0.00,CLR,,0.00,WeatherDisplay:10.37,2013-09-19 13:00:00,
2013-09-19 08:05:00,78.4,76.5,29.85,ESE,105,0.0,0.0,94,0.00,CLR,,0.00,WeatherDisplay:10.37,2013-09-19 13:05:00,
2013-09-19 08:10:00,78.7,76.8,29.86,ESE,105,0.0,0.0,94,0.00,CLR,,0.00,WeatherDisplay:10.37,2013-09-19 13:10:00,
2013-09-19 08:15:00,79.3,77.4,29.85,ESE,105,1.1,1.1,94,0.00,CLR,,0.00,WeatherDisplay:10.37,2013-09-19 13:15:00,
2013-09-19 08:20:00,80.0,78.1,29.86,ESE,105,1.1,1.1,94,0.00,CLR,,0.00,WeatherDisplay:10.37,2013-09-19 13:20:00,
2013-09-19 08:25:00,80.6,78.4,29.86,ESE,105,0.0,0.0,93,0.00,CLR,,0.00,WeatherDisplay:10.37,2013-09-19 13:25:00,
2013-09-19 08:30:00,81.2,79.0,29.86,ESE,105,2.3,2.3,93,0.00,CLR,,0.00,WeatherDisplay:10.37,2013-09-19 13:30:00,
2013-09-19 08:35:00,81.8,78.9,29.86,ESE,106,2.3,2.3,91,0.00,CLR,,0.00,WeatherDisplay:10.37,2013-09-19 13:35:00,
2013-09-19 08:40:00,82.3,78.4,29.86,ESE,119,4.6,4.6,88,0.00,CLR,,0.00,WeatherDisplay:10.37,2013-09-19 13:40:00,
2013-09-19 08:45:00,82.7,78.4,29.86,ESE,105,3.5,3.5,87,0.00,CLR,,0.00,WeatherDisplay:10.37,2013-09-19 13:45:00,
2013-09-19 08:50:00,83.2,78.6,29.86,East,97,3.5,3.5,86,0.00,CLR,,0.00,WeatherDisplay:10.37,2013-09-19 13:50:00,
2013-09-19 08:55:00,83.4,78.8,29.86,East,92,3.5,3.5,86,0.00,CLR,,0.00,WeatherDisplay:10.37,2013-09-19 13:55:00,
2013-09-19 09:00:00,83.6,79.0,29.86,SE,127,2.3,2.3,86,0.00,CLR,,0.00,WeatherDisplay:10.37,2013-09-19 14:00:00,
2013-09-19 09:05:00,84.0,79.0,29.87,ESE,107,5.8,5.8,85,0.00,CLR,,0.00,WeatherDisplay:10.37,2013-09-19 14:05:00,
2013-09-19 09:10:00,84.4,79.4,29.87,ESE,106,2.3,2.3,85,0.00,CLR,,0.00,WeatherDisplay:10.37,2013-09-19 14:10:00,
2013-09-19 09:15:00,84.7,79.0,29.87,ENE,76,5.8,5.8,83,0.00,CLR,,0.00,WeatherDisplay:10.37,2013-09-19 14:15:00,
2013-09-19 09:20:00,84.6,78.9,29.87,East,86,4.6,4.6,83,0.00,CLR,,0.00,WeatherDisplay:10.37,2013-09-19 14:20:00,
2013-09-19 09:25:00,84.6,78.5,29.87,SE,141,5.8,5.8,82,0.00,CLR,,0.00,WeatherDisplay:10.37,2013-09-19 14:25:00,
2013-09-19 09:30:00,84.6,78.5,29.87,East,86,4.2,4.2,82,0.00,CLR,,0.00,WeatherDisplay:10.37,2013-09-19 14:30:00,
2013-09-19 09:35:00,84.9,78.8,29.87,East,100,5.8,5.8,82,0.00,CLR,,0.00,WeatherDisplay:10.37,2013-09-19 14:35:00,
2013-09-19 09:40:00,85.2,79.1,29.88,East,85,5.8,5.8,82,0.00,CLR,,0.00,WeatherDisplay:10.37,2013-09-19 14:40:00,
2013-09-19 09:45:00,85.2,78.7,29.88,East,96,5.8,5.8,81,0.00,CLR,,0.00,WeatherDisplay:10.37,2013-09-19 14:45:00,
2013-09-19 09:50:00,85.4,78.9,29.88,SE,146,8.1,8.1,81,0.00,CLR,,0.00,WeatherDisplay:10.37,2013-09-19 14:50:00,
2013-09-19 09:56:00,85.5,79.4,29.88,SSE,160,5.8,5.8,82,0.00,CLR,,0.00,WeatherDisplay:10.37,2013-09-19 14:56:00,
2013-09-19 10:01:00,85.7,79.2,29.88,East,96,7.4,7.4,81,0.00,CLR,,0.00,WeatherDisplay:10.37,2013-09-19 15:01:00,
2013-09-19 10:06:00,85.7,79.2,29.88,East,98,9.2,9.2,81,0.00,CLR,,0.00,WeatherDisplay:10.37,2013-09-19 15:06:00,
2013-09-19 10:11:00,85.6,79.5,29.88,East,96,6.9,6.9,82,0.00,CLR,,0.00,WeatherDisplay:10.37,2013-09-19 15:11:00,
2013-09-19 10:16:00,85.7,79.2,29.88,ENE,72,3.5,3.5,81,0.00,CLR,,0.00,WeatherDisplay:10.37,2013-09-19 15:16:00,
2013-09-19 10:21:00,85.8,79.7,29.88,East,95,5.8,5.8,82,0.00,CLR,,0.00,WeatherDisplay:10.37,2013-09-19 15:21:00,
2013-09-19 10:26:00,86.1,79.6,29.88,ESE,105,10.4,10.4,81,0.00,CLR,,0.00,WeatherDisplay:10.37,2013-09-19 15:26:00,
2013-09-19 10:31:00,85.7,78.8,29.88,ESE,114,6.9,6.9,80,0.00,CLR,,0.00,WeatherDisplay:10.37,2013-09-19 15:31:00,
2013-09-19 10:36:00,85.5,79.7,29.88,ENE,75,5.8,5.8,83,0.00,CLR,,0.00,WeatherDisplay:10.37,2013-09-19 15:36:00,
2013-09-19 10:41:00,85.8,79.3,29.88,East,93,10.4,10.4,81,0.00,CLR,,0.00,WeatherDisplay:10.37,2013-09-19 15:41:00,
2013-09-19 10:46:00,86.1,78.8,29.88,SE,131,6.9,6.9,79,0.00,CLR,,0.00,WeatherDisplay:10.37,2013-09-19 15:46:00,
2013-09-19 10:51:00,86.2,79.3,29.88,ENE,62,5.8,5.8,80,0.00,CLR,,0.00,WeatherDisplay:10.37,2013-09-19 15:51:00,
2013-09-19 10:56:00,86.5,80.0,29.88,East,98,5.8,5.8,81,0.00,CLR,,0.00,WeatherDisplay:10.37,2013-09-19 15:56:00,
2013-09-19 11:01:00,86.7,79.4,29.88,East,97,10.4,10.4,79,0.00,CLR,,0.00,WeatherDisplay:10.37,2013-09-19 16:01:00,
2013-09-19 11:06:00,86.9,79.2,29.88,ESE,109,5.8,5.8,78,0.00,CLR,,0.00,WeatherDisplay:10.37,2013-09-19 16:06:00,
2013-09-19 11:11:00,86.7,79.4,29.88,ESE,123,6.9,6.9,79,0.00,CLR,,0.00,WeatherDisplay:10.37,2013-09-19 16:11:00,
2013-09-19 11:16:00,86.8,79.9,29.88,ESE,106,5.8,5.8,80,0.00,CLR,,0.00,WeatherDisplay:10.37,2013-09-19 16:16:00,
2013-09-19 11:21:00,87.1,79.4,29.88,East,94,6.9,6.9,78,0.00,CLR,,0.00,WeatherDisplay:10.37,2013-09-19 16:21:00,
2013-09-19 11:26:00,86.8,79.5,29.88,NE,50,6.9,6.9,79,0.00,CLR,,0.00,WeatherDisplay:10.37,2013-09-19 16:26:00,
2013-09-19 11:31:00,86.5,79.6,29.88,East,82,10.4,10.4,80,0.00,CLR,,0.00,WeatherDisplay:10.37,2013-09-19 16:31:00,
2013-09-19 11:36:00,86.7,79.4,29.88,East,87,9.2,9.2,79,0.00,CLR,,0.00,WeatherDisplay:10.37,2013-09-19 16:36:00,
2013-09-19 11:41:00,87.2,80.3,29.88,SSE,153,9.2,9.2,80,0.00,CLR,,0.00,WeatherDisplay:10.37,2013-09-19 16:41:00,
2013-09-19 11:46:00,87.3,80.0,29.87,East,96,11.5,11.5,79,0.00,CLR,,0.00,WeatherDisplay:10.37,2013-09-19 16:46:00,
2013-09-19 11:51:00,86.9,79.6,29.87,East,96,10.4,10.4,79,0.00,CLR,,0.00,WeatherDisplay:10.37,2013-09-19 16:51:00,
2013-09-19 11:56:00,87.1,79.8,29.87,SE,140,5.8,5.8,79,0.00,CLR,,0.00,WeatherDisplay:10.37,2013-09-19 16:56:00,
2013-09-19 12:01:00,87.0,79.7,29.87,East,85,5.8,6.6,79,0.00,CLR,,0.00,WeatherDisplay:10.37,2013-09-19 17:01:00,
2013-09-19 12:06:00,87.2,79.9,29.87,East,97,7.4,7.4,79,0.00,CLR,,0.00,WeatherDisplay:10.37,2013-09-19 17:06:00,
2013-09-19 12:11:00,87.0,80.1,29.87,ESE,104,9.2,9.2,80,0.00,CLR,,0.00,WeatherDisplay:10.37,2013-09-19 17:11:00,
2013-09-19 12:16:00,87.0,80.1,29.87,ENE,59,6.9,6.9,80,0.00,CLR,,0.00,WeatherDisplay:10.37,2013-09-19 17:16:00,
2013-09-19 12:21:00,87.1,79.4,29.87,ENE,75,10.4,10.4,78,0.00,CLR,,0.00,WeatherDisplay:10.37,2013-09-19 17:21:00,
2013-09-19 12:26:00,86.9,79.6,29.86,East,98,10.4,10.4,79,0.00,CLR,,0.00,WeatherDisplay:10.37,2013-09-19 17:26:00,
2013-09-19 12:31:00,86.7,79.4,29.86,ESE,114,5.8,5.8,79,0.00,CLR,,0.00,WeatherDisplay:10.37,2013-09-19 17:31:00,
2013-09-19 12:36:00,86.7,79.4,29.86,East,84,11.5,11.5,79,0.00,CLR,,0.00,WeatherDisplay:10.37,2013-09-19 17:36:00,
2013-09-19 12:41:00,86.8,79.9,29.86,East,87,6.9,6.9,80,0.00,CLR,,0.00,WeatherDisplay:10.37,2013-09-19 17:41:00,
2013-09-19 12:46:00,87.1,79.8,29.86,East,86,10.4,10.4,79,0.00,CLR,,0.00,WeatherDisplay:10.37,2013-09-19 17:46:00,
2013-09-19 12:51:00,87.3,79.6,29.86,SE,126,8.1,8.1,78,0.00,CLR,,0.00,WeatherDisplay:10.37,2013-09-19 17:51:00,
2013-09-19 12:56:00,87.5,80.6,29.86,NE,41,6.9,6.9,80,0.00,CLR,,0.00,WeatherDisplay:10.37,2013-09-19 17:56:00,
2013-09-19 13:01:00,87.3,79.6,29.86,ENE,77,6.9,6.9,78,0.00,CLR,,0.00,WeatherDisplay:10.37,2013-09-19 18:01:00,
2013-09-19 13:06:00,87.2,79.9,29.85,ESE,123,9.2,9.2,79,0.00,CLR,,0.00,WeatherDisplay:10.37,2013-09-19 18:06:00,
2013-09-19 13:11:00,86.9,80.0,29.85,ESE,106,6.9,6.9,80,0.00,CLR,,0.00,WeatherDisplay:10.37,2013-09-19 18:11:00,
2013-09-19 13:16:00,87.6,80.7,29.85,ESE,117,5.8,5.8,80,0.00,CLR,,0.00,WeatherDisplay:10.37,2013-09-19 18:16:00,
2013-09-19 13:21:00,87.6,79.9,29.85,SSE,151,8.1,8.1,78,0.00,CLR,,0.00,WeatherDisplay:10.37,2013-09-19 18:21:00,
2013-09-19 13:26:00,87.5,80.2,29.85,ESE,115,9.2,9.2,79,0.00,CLR,,0.00,WeatherDisplay:10.37,2013-09-19 18:26:00,
2013-09-19 13:31:00,87.4,79.7,29.85,SE,129,10.4,10.4,78,0.00,CLR,,0.00,WeatherDisplay:10.37,2013-09-19 18:31:00,
2013-09-19 13:36:00,87.4,80.1,29.85,SE,126,6.9,6.9,79,0.00,CLR,,0.00,WeatherDisplay:10.37,2013-09-19 18:36:00,
2013-09-19 13:41:00,87.4,80.1,29.85,ESE,105,10.4,10.4,79,0.00,CLR,,0.00,WeatherDisplay:10.37,2013-09-19 18:41:00,
2013-09-19 13:46:00,87.3,80.0,29.84,East,82,10.4,10.4,79,0.00,CLR,,0.00,WeatherDisplay:10.37,2013-09-19 18:46:00,
2013-09-19 13:51:00,87.4,79.7,29.84,East,93,5.8,6.0,78,0.00,CLR,,0.00,WeatherDisplay:10.37,2013-09-19 18:51:00,
2013-09-19 13:56:00,87.4,79.7,29.84,ESE,107,6.9,7.3,78,0.00,CLR,,0.00,WeatherDisplay:10.37,2013-09-19 18:56:00,
2013-09-19 14:01:00,87.8,80.1,29.84,ESE,110,9.2,9.2,78,0.00,CLR,,0.00,WeatherDisplay:10.37,2013-09-19 19:01:00,
2013-09-19 14:06:00,87.9,80.6,29.83,East,82,6.9,6.9,79,0.00,CLR,,0.00,WeatherDisplay:10.37,2013-09-19 19:06:00,
2013-09-19 14:11:00,86.9,79.6,29.83,ESE,117,11.5,11.5,79,0.00,CLR,,0.00,WeatherDisplay:10.37,2013-09-19 19:11:00,
2013-09-19 14:16:00,86.5,80.0,29.83,East,99,10.4,10.4,81,0.00,CLR,,0.00,WeatherDisplay:10.37,2013-09-19 19:16:00,
2013-09-19 14:21:00,86.9,80.4,29.83,East,98,13.8,13.8,81,0.00,CLR,,0.00,WeatherDisplay:10.37,2013-09-19 19:21:00,
2013-09-19 14:26:00,87.0,79.7,29.83,East,100,8.1,8.1,79,0.00,CLR,,0.00,WeatherDisplay:10.37,2013-09-19 19:26:00,
2013-09-19 14:31:00,86.8,79.1,29.83,East,91,5.8,5.8,78,0.00,CLR,,0.00,WeatherDisplay:10.37,2013-09-19 19:31:00,
2013-09-19 14:36:00,86.8,79.5,29.82,East,79,6.9,6.9,79,0.00,CLR,,0.00,WeatherDisplay:10.37,2013-09-19 19:36:00,
2013-09-19 14:41:00,86.8,79.5,29.82,ENE,65,9.2,9.2,79,0.00,CLR,,0.00,WeatherDisplay:10.37,2013-09-19 19:41:00,
2013-09-19 14:46:00,87.3,79.6,29.82,NNE,15,11.5,11.5,78,0.00,CLR,,0.00,WeatherDisplay:10.37,2013-09-19 19:46:00,
2013-09-19 14:51:00,87.3,79.6,29.82,ENE,74,5.8,5.8,78,0.00,CLR,,0.00,WeatherDisplay:10.37,2013-09-19 19:51:00,
2013-09-19 14:56:00,87.6,79.5,29.82,East,96,10.4,10.4,77,0.00,CLR,,0.00,WeatherDisplay:10.37,2013-09-19 19:56:00,
2013-09-19 15:01:00,87.5,79.8,29.82,East,94,13.8,13.8,78,0.00,CLR,,0.00,WeatherDisplay:10.37,2013-09-19 20:01:00,
2013-09-19 15:06:00,87.1,79.4,29.82,ESE,106,11.5,11.5,78,0.00,CLR,,0.00,WeatherDisplay:10.37,2013-09-19 20:06:00,
2013-09-19 15:11:00,87.0,79.3,29.82,ESE,106,11.6,11.6,78,0.00,CLR,,0.00,WeatherDisplay:10.37,2013-09-19 20:11:00,
2013-09-19 15:16:00,86.9,79.2,29.82,SSE,157,12.7,12.7,78,0.00,CLR,,0.00,WeatherDisplay:10.37,2013-09-19 20:16:00,
2013-09-19 15:21:00,87.1,79.8,29.81,SE,140,6.9,6.9,79,0.00,CLR,,0.00,WeatherDisplay:10.37,2013-09-19 20:21:00,
2013-09-19 15:26:00,87.1,79.8,29.81,SE,130,5.8,5.8,79,0.00,CLR,,0.00,WeatherDisplay:10.37,2013-09-19 20:26:00,
2013-09-19 15:31:00,86.9,79.2,29.82,ENE,77,16.1,16.1,78,0.00,CLR,,0.00,WeatherDisplay:10.37,2013-09-19 20:31:00,
2013-09-19 15:36:00,86.2,79.3,29.81,ESE,115,9.2,9.2,80,0.00,CLR,,0.00,WeatherDisplay:10.37,2013-09-19 20:36:00,
2013-09-19 15:41:00,85.4,78.9,29.81,East,95,6.9,6.9,81,0.00,CLR,,0.00,WeatherDisplay:10.37,2013-09-19 20:41:00,
2013-09-19 15:46:00,85.3,79.2,29.81,East,96,5.8,5.8,82,0.00,CLR,,0.00,WeatherDisplay:10.37,2013-09-19 20:46:00,
2013-09-19 15:51:00,85.1,78.6,29.80,SE,128,15.0,15.0,81,0.00,CLR,,0.00,WeatherDisplay:10.37,2013-09-19 20:51:00,
2013-09-19 15:56:00,85.1,79.0,29.80,ESE,120,6.9,6.9,82,0.00,CLR,,0.00,WeatherDisplay:10.37,2013-09-19 20:56:00,
2013-09-19 16:01:00,84.8,78.3,29.80,East,96,8.1,8.1,81,0.00,CLR,,0.00,WeatherDisplay:10.37,2013-09-19 21:01:00,
2013-09-19 16:06:00,84.8,78.3,29.80,ESE,115,10.4,10.4,81,0.00,CLR,,0.00,WeatherDisplay:10.37,2013-09-19 21:06:00,
2013-09-19 16:11:00,84.8,77.9,29.80,ESE,110,9.2,9.2,80,0.00,CLR,,0.00,WeatherDisplay:10.37,2013-09-19 21:11:00,
2013-09-19 16:16:00,84.8,78.7,29.80,East,90,10.4,10.4,82,0.00,CLR,,0.00,WeatherDisplay:10.37,2013-09-19 21:16:00,
2013-09-19 16:21:00,84.8,79.1,29.80,East,82,5.8,5.8,83,0.00,CLR,,0.00,WeatherDisplay:10.37,2013-09-19 21:21:00,
2013-09-19 16:26:00,84.7,78.6,29.80,East,101,6.9,6.9,82,0.00,CLR,,0.00,WeatherDisplay:10.37,2013-09-19 21:26:00,
2013-09-19 16:31:00,84.5,78.0,29.80,ESE,103,6.9,6.9,81,0.00,CLR,,0.00,WeatherDisplay:10.37,2013-09-19 21:31:00,
2013-09-19 16:36:00,84.6,78.5,29.80,ESE,118,10.4,10.4,82,0.00,CLR,,0.00,WeatherDisplay:10.37,2013-09-19 21:36:00,
2013-09-19 16:41:00,85.2,79.1,29.80,ENE,66,10.4,10.4,82,0.00,CLR,,0.00,WeatherDisplay:10.37,2013-09-19 21:41:00,
2013-09-19 16:46:00,85.8,79.3,29.80,East,81,10.4,10.4,81,0.00,CLR,,0.00,WeatherDisplay:10.37,2013-09-19 21:46:00,
2013-09-19 16:51:00,86.1,79.6,29.80,East,94,5.8,5.8,81,0.00,CLR,,0.00,WeatherDisplay:10.37,2013-09-19 21:51:00,
2013-09-19 16:56:00,86.1,79.6,29.80,ENE,58,5.8,5.8,81,0.00,CLR,,0.00,WeatherDisplay:10.37,2013-09-19 21:56:00,
2013-09-19 17:01:00,86.0,79.5,29.79,ENE,71,12.7,12.7,81,0.00,CLR,,0.00,WeatherDisplay:10.37,2013-09-19 22:01:00,
2013-09-19 17:06:00,85.3,79.2,29.79,SE,141,11.5,11.5,82,0.00,CLR,,0.00,WeatherDisplay:10.37,2013-09-19 22:06:00,
2013-09-19 17:11:00,84.7,79.0,29.80,ESE,110,11.5,11.5,83,0.00,CLR,,0.00,WeatherDisplay:10.37,2013-09-19 22:11:00,
2013-09-19 17:16:00,84.4,77.9,29.79,ESE,105,10.4,10.4,81,0.00,CLR,,0.00,WeatherDisplay:10.37,2013-09-19 22:16:00,
2013-09-19 17:21:00,84.8,78.3,29.79,ESE,103,11.5,11.5,81,0.00,CLR,,0.00,WeatherDisplay:10.37,2013-09-19 22:21:00,
2013-09-19 17:26:00,85.1,78.6,29.79,SE,129,9.2,9.2,81,0.00,CLR,,0.00,WeatherDisplay:10.37,2013-09-19 22:26:00,
2013-09-19 17:31:00,85.3,78.8,29.79,East,94,7.4,7.4,81,0.00,CLR,,0.00,WeatherDisplay:10.37,2013-09-19 22:31:00,
2013-09-19 17:36:00,85.1,78.6,29.79,East,96,12.7,12.7,81,0.00,CLR,,0.00,WeatherDisplay:10.37,2013-09-19 22:36:00,
2013-09-19 17:41:00,84.7,78.6,29.79,SE,139,5.8,6.4,82,0.00,CLR,,0.00,WeatherDisplay:10.37,2013-09-19 22:41:00,
2013-09-19 17:46:00,84.4,78.7,29.79,East,98,11.5,11.5,83,0.00,CLR,,0.00,WeatherDisplay:10.37,2013-09-19 22:46:00,
2013-09-19 17:51:00,84.1,78.7,29.79,SE,134,10.4,10.4,84,0.00,CLR,,0.00,WeatherDisplay:10.37,2013-09-19 22:51:00,
2013-09-19 17:56:00,84.3,78.9,29.79,NE,54,11.5,11.5,84,0.00,CLR,,0.00,WeatherDisplay:10.37,2013-09-19 22:56:00,
2013-09-19 18:01:00,84.1,78.4,29.78,East,86,13.8,13.8,83,0.00,CLR,,0.00,WeatherDisplay:10.37,2013-09-19 23:01:00,
2013-09-19 18:06:00,84.1,78.4,29.79,East,94,13.8,13.8,83,0.00,CLR,,0.00,WeatherDisplay:10.37,2013-09-19 23:06:00,
2013-09-19 18:11:00,84.0,78.3,29.79,East,100,11.5,11.5,83,0.00,CLR,,0.00,WeatherDisplay:10.37,2013-09-19 23:11:00,
2013-09-19 18:16:00,83.9,78.2,29.79,ESE,113,6.9,6.9,83,0.00,CLR,,0.00,WeatherDisplay:10.37,2013-09-19 23:16:00,
2013-09-19 18:21:00,83.9,78.2,29.79,East,91,12.7,12.7,83,0.00,CLR,,0.00,WeatherDisplay:10.37,2013-09-19 23:21:00,
2013-09-19 18:26:00,84.0,78.3,29.79,ESE,113,6.9,6.9,83,0.00,CLR,,0.00,WeatherDisplay:10.37,2013-09-19 23:26:00,
2013-09-19 18:31:00,84.0,78.3,29.79,East,96,6.9,6.9,83,0.00,CLR,,0.00,WeatherDisplay:10.37,2013-09-19 23:31:00,
2013-09-19 18:36:00,83.9,78.2,29.79,ENE,72,9.2,9.2,83,0.00,CLR,,0.00,WeatherDisplay:10.37,2013-09-19 23:36:00,
2013-09-19 18:41:00,83.9,78.2,29.79,ESE,108,10.4,10.4,83,0.00,CLR,,0.00,WeatherDisplay:10.37,2013-09-19 23:41:00,
2013-09-19 18:46:00,83.8,78.4,29.79,East,95,15.0,15.0,84,0.00,CLR,,0.00,WeatherDisplay:10.37,2013-09-19 23:46:00,
2013-09-19 18:51:00,83.8,78.4,29.79,SE,124,10.4,10.4,84,0.00,CLR,,0.00,WeatherDisplay:10.37,2013-09-19 23:51:00,
2013-09-19 18:56:00,83.7,78.3,29.79,ESE,122,10.5,10.5,84,0.00,CLR,,0.00,WeatherDisplay:10.37,2013-09-19 23:56:00,
2013-09-19 19:01:00,83.5,78.2,29.79,ESE,113,11.5,11.5,84,0.00,CLR,,0.00,WeatherDisplay:10.37,2013-09-20 00:01:00,
2013-09-19 19:06:00,83.2,78.2,29.79,East,90,3.5,5.1,85,0.00,CLR,,0.00,WeatherDisplay:10.37,2013-09-20 00:06:00,
2013-09-19 19:11:00,83.0,78.0,29.79,East,100,10.4,10.4,85,0.00,CLR,,0.00,WeatherDisplay:10.37,2013-09-20 00:11:00,
2013-09-19 19:16:00,82.9,78.3,29.79,East,86,9.2,9.2,86,0.00,CLR,,0.00,WeatherDisplay:10.37,2013-09-20 00:16:00,
2013-09-19 19:21:00,82.8,78.2,29.79,SE,136,9.2,9.2,86,0.00,CLR,,0.00,WeatherDisplay:10.37,2013-09-20 00:21:00,
2013-09-19 19:26:00,82.7,78.1,29.79,SE,131,5.8,5.8,86,0.00,CLR,,0.00,WeatherDisplay:10.37,2013-09-20 00:26:00,
2013-09-19 19:31:00,82.5,77.9,29.79,ESE,107,11.5,11.5,86,0.00,CLR,,0.00,WeatherDisplay:10.37,2013-09-20 00:31:00,
2013-09-19 19:36:00,82.4,77.8,29.79,SE,124,6.9,6.9,86,0.00,CLR,,0.00,WeatherDisplay:10.37,2013-09-20 00:36:00,
2013-09-19 19:41:00,82.3,77.7,29.79,East,96,9.2,9.2,86,0.00,CLR,,0.00,WeatherDisplay:10.37,2013-09-20 00:41:00,
2013-09-19 19:46:00,82.3,77.7,29.79,ESE,121,8.1,8.1,86,0.00,CLR,,0.00,WeatherDisplay:10.37,2013-09-20 00:46:00,
2013-09-19 19:51:00,82.2,77.9,29.79,ESE,123,5.8,5.8,87,0.00,CLR,,0.00,WeatherDisplay:10.37,2013-09-20 00:51:00,
2013-09-19 19:56:00,82.1,77.8,29.80,ESE,108,10.4,10.4,87,0.00,CLR,,0.00,WeatherDisplay:10.37,2013-09-20 00:56:00,
2013-09-19 20:01:00,82.1,77.8,29.80,ESE,116,5.8,5.8,87,0.00,CLR,,0.00,WeatherDisplay:10.37,2013-09-20 01:01:00,
2013-09-19 20:06:00,82.2,77.9,29.80,ESE,112,5.8,5.8,87,0.00,CLR,,0.00,WeatherDisplay:10.37,2013-09-20 01:06:00,
2013-09-19 20:11:00,82.1,77.8,29.80,ESE,113,9.2,9.2,87,0.00,CLR,,0.00,WeatherDisplay:10.37,2013-09-20 01:11:00,
2013-09-19 20:16:00,82.1,77.5,29.80,ESE,122,5.8,5.8,86,0.00,CLR,,0.00,WeatherDisplay:10.37,2013-09-20 01:16:00,
2013-09-19 20:21:00,82.0,77.4,29.80,SE,128,9.2,9.2,86,0.00,CLR,,0.00,WeatherDisplay:10.37,2013-09-20 01:21:00,
2013-09-19 20:26:00,81.9,77.3,29.81,ESE,113,8.1,8.1,86,0.00,CLR,,0.00,WeatherDisplay:10.37,2013-09-20 01:26:00,
2013-09-19 20:31:00,81.8,76.8,29.81,East,93,7.4,7.4,85,0.00,CLR,,0.00,WeatherDisplay:10.37,2013-09-20 01:31:00,
2013-09-19 20:36:00,81.9,77.3,29.81,SE,132,11.5,11.5,86,0.00,CLR,,0.00,WeatherDisplay:10.37,2013-09-20 01:36:00,
2013-09-19 20:41:00,81.8,77.2,29.81,SE,141,9.2,9.2,86,0.00,CLR,,0.00,WeatherDisplay:10.37,2013-09-20 01:41:00,
2013-09-19 20:46:00,81.8,77.5,29.81,ESE,106,9.2,9.2,87,0.00,CLR,,0.00,WeatherDisplay:10.37,2013-09-20 01:46:00,
2013-09-19 20:51:00,81.8,77.5,29.81,ESE,104,6.9,6.9,87,0.00,CLR,,0.00,WeatherDisplay:10.37,2013-09-20 01:51:00,
2013-09-19 20:56:00,81.7,77.5,29.81,SE,132,10.4,10.4,87,0.00,CLR,,0.00,WeatherDisplay:10.37,2013-09-20 01:56:00,
2013-09-19 21:01:00,81.7,77.1,29.82,East,96,6.9,6.9,86,0.00,CLR,,0.00,WeatherDisplay:10.37,2013-09-20 02:01:00,
2013-09-19 21:06:00,81.8,77.2,29.82,ESE,115,9.4,9.4,86,0.00,CLR,,0.00,WeatherDisplay:10.37,2013-09-20 02:06:00,
2013-09-19 21:11:00,81.8,77.2,29.82,ESE,104,12.7,12.7,86,0.00,CLR,,0.00,WeatherDisplay:10.37,2013-09-20 02:11:00,
2013-09-19 21:17:00,81.8,77.2,29.82,SE,136,9.2,9.2,86,0.00,CLR,,0.00,WeatherDisplay:10.37,2013-09-20 02:17:00,
2013-09-19 21:22:00,81.8,77.5,29.82,ESE,114,8.1,8.1,87,0.00,CLR,,0.00,WeatherDisplay:10.37,2013-09-20 02:22:00,
2013-09-19 21:27:00,81.9,77.6,29.82,East,96,5.8,5.8,87,0.00,CLR,,0.00,WeatherDisplay:10.37,2013-09-20 02:27:00,
2013-09-19 21:32:00,81.8,77.9,29.82,East,96,6.9,6.9,88,0.00,CLR,,0.00,WeatherDisplay:10.37,2013-09-20 02:32:00,
2013-09-19 21:37:00,81.8,77.9,29.82,SE,131,11.5,11.5,88,0.00,CLR,,0.00,WeatherDisplay:10.37,2013-09-20 02:37:00,
2013-09-19 21:42:00,81.7,77.8,29.82,SSE,150,9.2,9.2,88,0.00,CLR,,0.00,WeatherDisplay:10.37,2013-09-20 02:42:00,
2013-09-19 21:47:00,81.7,77.8,29.82,ENE,76,10.4,10.4,88,0.00,CLR,,0.00,WeatherDisplay:10.37,2013-09-20 02:47:00,
2013-09-19 21:52:00,81.7,77.5,29.82,SE,126,10.4,10.4,87,0.00,CLR,,0.00,WeatherDisplay:10.37,2013-09-20 02:52:00,
2013-09-19 21:57:00,81.7,77.1,29.82,ESE,122,11.5,11.5,86,0.00,CLR,,0.00,WeatherDisplay:10.37,2013-09-20 02:57:00,
2013-09-19 22:02:00,81.8,77.2,29.82,ESE,113,4.6,4.6,86,0.00,CLR,,0.00,WeatherDisplay:10.37,2013-09-20 03:02:00,
2013-09-19 22:07:00,81.8,77.5,29.82,ESE,105,11.5,11.5,87,0.00,CLR,,0.00,WeatherDisplay:10.37,2013-09-20 03:07:00,
2013-09-19 22:12:00,81.8,77.5,29.82,ESE,110,5.8,5.8,87,0.00,CLR,,0.00,WeatherDisplay:10.37,2013-09-20 03:12:00,
2013-09-19 22:17:00,81.8,77.5,29.82,SSE,155,12.7,12.7,87,0.00,CLR,,0.00,WeatherDisplay:10.37,2013-09-20 03:17:00,
2013-09-19 22:22:00,81.9,77.6,29.82,ESE,104,15.0,15.0,87,0.00,CLR,,0.00,WeatherDisplay:10.37,2013-09-20 03:22:00,
2013-09-19 22:27:00,81.6,77.7,29.82,East,101,5.8,5.8,88,0.00,CLR,,0.00,WeatherDisplay:10.37,2013-09-20 03:27:00,
2013-09-19 22:32:00,81.4,77.5,29.82,ESE,110,10.4,10.4,88,0.00,CLR,,0.00,WeatherDisplay:10.37,2013-09-20 03:32:00,
2013-09-19 22:37:00,81.3,77.7,29.82,SE,126,5.8,5.8,89,0.00,CLR,,0.00,WeatherDisplay:10.37,2013-09-20 03:37:00,
2013-09-19 22:42:00,81.3,77.7,29.82,SE,131,4.6,4.6,89,0.00,CLR,,0.00,WeatherDisplay:10.37,2013-09-20 03:42:00,
2013-09-19 22:47:00,81.4,77.8,29.82,ESE,122,5.8,5.8,89,0.00,CLR,,0.00,WeatherDisplay:10.37,2013-09-20 03:47:00,
2013-09-19 22:52:00,81.4,77.8,29.82,ESE,117,5.8,5.8,89,0.00,CLR,,0.00,WeatherDisplay:10.37,2013-09-20 03:52:00,
2013-09-19 22:57:00,81.5,77.9,29.82,ESE,105,5.8,5.8,89,0.00,CLR,,0.00,WeatherDisplay:10.37,2013-09-20 03:57:00,
2013-09-19 23:01:00,81.5,77.6,29.82,East,80,5.8,5.8,88,0.00,CLR,,0.00,WeatherDisplay:10.37,2013-09-20 04:01:00,
2013-09-19 23:02:00,81.5,77.6,29.82,SE,146,5.8,5.8,88,0.00,CLR,,0.00,WeatherDisplay:10.37,2013-09-20 04:02:00,
2013-09-19 23:07:00,81.5,77.6,29.82,ESE,117,6.9,6.9,88,0.00,CLR,,0.00,WeatherDisplay:10.37,2013-09-20 04:07:00,
2013-09-19 23:12:00,81.7,78.1,29.82,SE,134,10.4,10.4,89,0.00,CLR,,0.00,WeatherDisplay:10.37,2013-09-20 04:12:00,
2013-09-19 23:17:00,81.7,78.1,29.82,ESE,117,6.9,6.9,89,0.00,CLR,,0.00,WeatherDisplay:10.37,2013-09-20 04:17:00,
2013-09-19 23:22:00,81.7,78.1,29.82,ESE,117,5.8,5.8,89,0.00,CLR,,0.00,WeatherDisplay:10.37,2013-09-20 04:22:00,
2013-09-19 23:27:00,81.5,77.9,29.82,ESE,115,13.8,13.8,89,0.00,CLR,,0.00,WeatherDisplay:10.37,2013-09-20 04:27:00,
2013-09-19 23:32:00,81.3,77.4,29.82,SSE,151,10.4,10.4,88,0.00,CLR,,0.00,WeatherDisplay:10.37,2013-09-20 04:32:00,
2013-09-19 23:37:00,81.3,77.4,29.82,SE,129,10.5,10.5,88,0.00,CLR,,0.00,WeatherDisplay:10.37,2013-09-20 04:37:00,
2013-09-19 23:42:00,81.3,77.4,29.82,SSE,152,9.4,9.4,88,0.00,CLR,,0.00,WeatherDisplay:10.37,2013-09-20 04:42:00,
2013-09-19 23:47:00,81.3,77.4,29.82,SE,128,9.2,9.2,88,0.00,CLR,,0.00,WeatherDisplay:10.37,2013-09-20 04:47:00,
2013-09-19 23:52:00,81.4,77.5,29.82,SE,146,6.9,6.9,88,0.00,CLR,,0.00,WeatherDisplay:10.37,2013-09-20 04:52:00,
2013-09-19 23:57:00,81.4,77.5,29.81,SE,146,13.8,13.8,88,0.00,CLR,,0.00,WeatherDisplay:10.37,2013-09-20 04:57:00,